FENGYUN 1C DEB, 31157

Orbit data source: Space-Track

FENGYUN 1C DEB, 31157 is space debris in SSO originally from a launch on Mon, 10 May 1999 UTC launched from the Taiyaun Space Center, China (TSC). Fengyun 1C debris stems from the Chinese weather satellite Fengyun-1C, which was intentionally destroyed by a Chinese anti-satellite missile in 2007. This event dramatically increased the amount of space debris, with thousands of trackable fragments posing hazards to satellites and human spaceflight. The Fengyun 1C debris cloud has become a focal point in discussions about space sustainability and the need for international regulations to prevent the creation of new debris.

Loading next visibility...
Identifier
31157, 1999-025BHK
Orbit
SSO
Country
Flag of CNCN / PRC
Related business
Manufacturer
Unknown
Mission
Spacecraft
Bus & Motor
Unknown
Mass
Unknown
Launch date (UTC)
1999-05-10 (27 years ago)
Launch vehicle
Unknown
Launch site
Taiyaun Space Center, China (TSC)
Object type
Payload
Rocket body
Debris
Shape & HBR
Unknown shape, 0.1 m
Radar Cross Section
Small (<0.1 m²)

Expand to show TLE details & history
Last TLE update: 14 hours ago

TLE from 14 hours ago
0 FENGYUN 1C DEB
1 31157U 99025BHK 26071.19712902  .00000817  00000-0  36378-3 0  9995
2 31157  98.4887  56.3972 0101470  65.6554 295.5178 14.22695740982555
Epoch: 2026-03-12T04:43Z
TLE epoch observation values (Epoch: 2026-03-12T04:43:51.947Z)
Latitude
-0.00003°
Longitude
175.58028°
Altitude
788.328 km
Speed
7.476 km/s
True Right ascension
03h 45m 35s
True Declination
0° 00' 00"
Sunlit
Object was in daylight at epoch
Visualization orbit readout
Latitude
Unknown
Longitude
Unknown
Altitude
Unknown
Speed
Unknown
Apparent Right ascension
Unknown
Apparent Declination
Unknown
Sunlit
N/A
Visualization observer readout
Local Sidereal Time
22:47:46
Azimuth
Unknown
Elevation
Unknown
Doppler factor
Unknown
Orbital elements
Apogee altitude
886.367 km
Perigee altitude
740.422 km
Semi-major axis
7,191.531 km
Eccentricity
0.01015
Inclination
98.4887°
RAAN
56.3972°
Arg. of periapsis
65.6554°
True anomaly
294.46276°
Mean anomaly
295.5178°
Eccentric anomaly
294.99085°
Mean motion
3.55886 °/min
Orbital period
101.16 mins
BSTAR
0.00036378
Loading maneuver chart data...
Computing Atmospheric mass density...

Documentation

Showing up to 5 results
|